Retour au catalogue

STARLINK-3180

ActifCommunicationsVLEO
NORAD 51137·PAYLOAD·🇺🇸 United States

Lancé Jan 19, 2022 depuis Cape Canaveral Space Force Station

Loading…

Prochains Passages (prochaines 24 heures)

TLE

FraisSource: CelesTrak SupGP

Époque: Sep 15, 2026, 01:49 UTC

1 51137C 22005AK  26258.07618056  .00018545  00000+0  54803-3 0  2585
2 51137  53.1568 154.7499 0001371  85.7252 277.9423 15.34374343    19

Suivez STARLINK-3180 en temps réel avec AllMySat

Download on the App Store